GFSNW_500_rhum_021.txt.gz
RH
3 3 2 2 2 2 3 3 3 3 4 11 16 18 23 17 16 21 32 35 35 36 31 32 34 33 30 32 36 37 34 32 32 30 30 29 29 29 30 31 29 30 37 34
5 3 3 2 2 3 3 2 4 7 9 11 17 30 22 21 27 33 36 35 38 40 40 41 39 32 23 22 27 34 39 41 42 42 40 40 45 47 43 43 42 45 42 51
12 6 4 3 2 2 3 6 6 7 8 12 20 26 27 28 30 33 36 34 30 26 24 20 19 22 30 27 30 32 32 31 33 46 57 52 51 56 61 57 56 54 54 50
16 12 10 9 8 6 6 7 8 8 10 10 13 14 19 21 22 26 28 22 17 15 16 19 23 32 22 26 32 32 30 42 46 51 53 54 53 65 74 73 72 60 63 63
15 13 11 8 7 8 9 9 10 12 12 10 10 11 13 15 17 15 16 15 14 15 16 17 18 20 18 18 25 43 45 44 45 45 56 59 56 72 71 71 65 61 68 72
14 12 10 9 9 11 11 12 13 14 13 12 10 10 11 11 12 12 13 13 14 13 14 15 14 13 13 14 25 37 39 53 53 52 49 52 55 69 79 81 84 83 80 74
17 13 11 10 10 10 11 12 12 13 14 15 14 14 12 10 10 11 12 13 14 14 13 13 12 12 12 13 21 27 38 54 64 60 58 52 61 65 76 78 90 88 79 70
17 15 13 11 10 10 9 10 11 12 13 15 16 16 15 14 12 12 13 13 13 13 13 14 13 13 15 16 16 28 50 60 69 64 56 53 81 80 79 78 76 77 66 60
18 16 14 12 12 11 11 11 10 10 11 12 14 15 15 16 16 16 16 17 17 17 17 15 14 19 24 26 40 48 52 61 67 70 67 55 85 84 83 71 61 59 52 56
23 20 17 14 13 13 13 13 14 13 12 12 13 13 14 14 16 16 17 18 19 19 18 17 20 40 56 56 54 52 59 68 76 80 73 72 86 82 69 57 51 44 48 59
31 26 21 19 16 15 15 15 14 16 16 15 14 13 13 13 14 15 18 19 20 19 17 17 26 33 43 47 53 64 72 76 76 73 83 70 72 61 56 52 51 64 73 78
38 34 30 25 19 16 16 16 16 16 15 14 14 14 14 14 14 16 18 20 20 20 18 21 23 38 46 50 56 74 82 81 79 82 74 79 73 61 67 67 78 81 89 84
36 38 37 33 31 28 21 17 16 16 16 16 16 16 17 18 18 20 21 22 21 19 18 18 22 44 46 54 63 69 90 82 75 74 91 83 78 85 90 99 98 99 91 93
28 36 40 40 39 36 33 30 26 23 22 21 21 22 23 25 25 25 24 21 17 15 14 19 34 47 56 66 70 74 87 82 77 69 81 77 92 97 100 98 94 91 94 91
26 29 36 40 42 42 43 41 39 34 31 28 29 29 29 28 28 26 23 19 18 19 32 42 54 63 73 68 61 64 70 78 76 72 82 78 74 77 82 76 82 92 94 98
31 32 37 42 41 38 38 42 41 40 36 35 33 33 32 30 26 21 18 18 28 43 55 66 68 81 89 68 64 69 82 83 84 83 84 88 90 86 82 84 81 83 84 77
37 37 42 47 45 41 42 39 41 44 41 38 35 32 27 20 19 22 24 26 46 68 73 64 79 92 90 72 69 85 87 88 95 94 89 90 89 87 85 86 86 88 89 81
55 51 46 42 40 39 36 39 40 34 28 29 28 27 27 34 45 60 68 77 95 82 90 83 94 85 84 73 84 92 88 78 73 77 82 87 93 93 90 93 90 82 82 80
78 52 41 56 51 60 54 79 28 24 30 38 41 51 62 67 87 94 96 98 99 95 90 83 80 74 72 76 81 77 77 86 91 89 88 91 91 88 87 87 87 74 59 44
90 93 99 92 90 96 100 91 50 51 75 67 64 62 62 73 87 94 100 91 87 79 69 74 66 64 75 85 85 87 86 84 85 91 94 89 91 90 81 66 55 43 33 25
100 98 96 98 99 98 100 100 100 96 83 70 68 78 86 91 97 94 88 84 82 69 68 78 70 69 91 85 83 80 77 81 88 89 86 83 74 66 58 46 32 24 24 28
100 99 100 100 100 100 100 100 97 88 86 87 86 88 98 100 100 100 99 96 91 86 80 83 78 84 83 73 68 68 72 80 75 76 74 67 57 44 32 23 21 23 24 25
100 100 100 100 99 100 97 90 92 90 87 95 97 98 98 94 92 98 100 100 95 93 92 87 84 78 70 68 70 74 74 70 73 66 54 42 31 26 24 24 25 22 23 22
100 100 100 100 99 99 97 98 100 100 100 100 100 100 100 100 100 100 100 100 98 95 88 88 77 68 65 70 76 72 70 62 50 38 28 22 23 21 25 26 25 22 19 25
100 100 100 99 100 100 100 100 100 100 100 100 100 100 100 100 100 99 94 97 98 95 90 81 74 70 71 70 65 54 39 26 21 24 23 22 26 26 26 24 22 23 26 22
100 100 100 100 100 100 100 100 100 100 100 100 100 100 100 100 100 96 96 98 96 90 79 70 68 64 54 43 31 20 19 22 23 24 29 30 30 27 25 26 28 25 23 29
93 100 100 100 100 100 100 100 100 100 100 100 99 99 100 97 97 94 91 84 73 64 58 52 38 35 34 26 20 22 25 32 37 36 35 29 28 33 36 30 26 27 34 34

GFSNW_500_rhum_024.txt.gz
RH
4 3 2 2 4 4 4 4 5 5 6 6 4 3 3 13 16 14 17 28 30 29 30 26 28 32 33 35 30 24 29 32 33 34 36 40 47 49 46 46 43 45 46 37
4 4 3 2 4 4 4 4 4 5 5 4 4 12 18 22 18 18 25 30 30 31 33 35 35 31 20 21 26 29 33 36 40 40 40 42 46 46 51 53 51 54 50 56
7 4 3 3 3 3 3 3 4 4 3 6 10 13 26 21 21 26 27 28 28 24 22 19 16 15 19 22 18 25 32 36 42 48 50 49 47 52 55 53 56 67 65 61
16 5 4 3 2 2 2 2 3 4 6 6 9 16 23 25 25 24 20 22 22 14 13 13 14 16 22 17 16 15 16 28 35 41 47 52 50 55 52 56 67 62 72 70
24 12 5 4 3 2 2 3 5 6 8 8 9 12 14 16 16 15 16 15 13 12 12 12 14 13 12 12 12 12 15 23 28 35 44 50 48 55 56 59 68 75 82 84
24 19 11 6 4 3 3 6 7 8 9 11 10 9 10 10 11 12 11 11 10 10 11 11 12 12 11 11 12 19 21 25 38 42 44 44 51 49 50 63 78 81 92 93
23 19 16 12 12 10 8 8 9 10 13 13 12 11 10 10 10 10 9 9 10 12 12 11 12 12 12 14 15 20 32 48 46 45 43 45 54 68 66 70 80 84 82 78
23 18 16 14 11 9 10 11 11 13 14 14 14 14 13 12 12 12 12 12 12 13 12 13 14 15 16 15 17 42 53 45 44 42 43 44 63 72 68 70 83 80 73 68
27 20 17 13 11 11 12 12 12 13 14 14 15 16 16 16 15 16 15 15 16 16 16 17 18 18 18 17 24 46 40 42 41 49 57 57 75 74 74 66 58 55 61 60
29 25 20 17 13 11 11 11 12 12 12 14 14 13 14 14 15 15 15 16 16 17 18 19 19 19 17 19 32 36 36 38 49 57 65 64 73 68 60 55 54 56 55 59
29 27 22 19 17 15 14 12 12 12 11 11 11 12 13 13 13 14 14 14 16 17 18 19 19 20 19 22 24 26 31 50 61 61 73 70 66 60 62 61 62 64 66 61
36 31 26 22 18 17 17 16 16 15 15 15 14 14 14 14 14 14 14 14 16 16 19 21 20 20 20 19 18 29 53 63 69 77 83 82 77 71 68 69 65 66 69 65
40 40 31 26 23 20 18 18 18 17 16 16 16 17 17 15 15 15 16 17 18 21 23 22 22 22 20 21 29 42 70 69 74 74 81 70 66 69 69 73 80 74 65 58
26 38 40 34 31 28 24 20 19 18 17 16 16 16 15 16 16 18 20 22 25 26 25 25 22 19 21 24 34 56 91 76 80 76 76 69 70 72 69 68 65 60 67 81
22 24 37 43 41 38 35 32 31 29 25 21 20 19 20 20 21 23 26 28 30 29 26 24 20 20 27 32 33 64 94 90 83 77 73 72 67 63 60 58 61 71 80 80
25 26 29 34 44 44 46 47 46 44 42 34 32 31 30 30 32 34 35 34 31 24 22 21 22 34 47 41 48 87 100 93 85 78 71 69 70 64 64 69 68 70 82 87
28 28 28 30 31 34 38 37 43 48 48 46 41 38 38 39 39 39 37 29 23 24 28 39 64 85 88 79 83 100 86 83 80 72 70 69 67 69 67 66 75 80 82 80
41 39 36 34 34 32 32 34 42 44 42 41 33 30 37 41 38 30 31 40 51 54 72 82 86 92 100 89 100 99 98 90 78 73 73 74 74 71 73 81 80 73 67 61
100 100 97 66 38 32 39 49 52 52 48 39 32 32 36 32 31 36 66 88 88 87 84 80 84 81 85 97 96 85 73 70 73 75 73 71 70 72 75 71 64 59 50 37
100 100 100 83 67 50 60 57 51 66 72 42 36 37 32 28 36 84 100 95 96 83 74 78 72 71 78 82 79 79 83 84 80 80 76 67 67 67 63 62 54 37 20 15
100 96 95 89 97 100 93 60 68 94 69 65 65 70 69 41 54 82 99 95 90 78 67 65 51 54 90 99 89 86 89 90 86 76 68 66 62 58 54 40 22 13 14 16
99 98 99 100 100 100 96 96 99 86 82 60 63 75 92 98 100 100 100 100 95 80 73 67 58 74 96 99 96 93 88 81 74 68 63 57 54 42 25 13 12 13 15 17
100 100 100 100 100 100 100 95 82 83 76 77 81 85 99 100 96 100 100 99 90 81 73 76 88 100 99 98 95 85 82 74 67 62 56 46 29 16 13 15 17 16 17 20
100 100 100 100 100 100 98 97 100 95 100 100 90 89 100 100 100 100 100 100 100 93 88 99 100 96 98 96 88 84 73 65 58 47 31 15 10 11 16 19 19 20 22 20
100 100 100 100 100 100 100 100 100 100 100 100 100 100 100 100 100 100 100 100 100 99 100 95 92 92 91 90 80 68 59 48 30 14 11 11 13 15 18 22 23 22 24 27
100 100 100 100 100 100 100 100 100 100 100 100 100 100 100 100 100 100 100 100 100 98 97 94 96 98 85 75 64 47 26 13 10 10 12 15 19 20 23 24 24 27 30 27
100 100 100 100 100 100 100 100 100 100 100 100 100 100 100 100 100 100 100 98 93 93 98 93 88 64 53 39 19 13 12 12 12 19 24 23 24 26 26 27 33 33 33 39

GFSNW_500_rhum_027.txt.gz
RH
5 4 6 8 9 9 8 8 8 6 6 6 6 7 7 6 3 7 14 14 27 27 26 22 21 23 23 26 26 25 29 33 33 36 39 40 41 42 42 43 46 43 49 43
6 4 4 7 7 7 6 6 5 5 5 6 6 6 5 3 9 17 15 21 28 28 29 28 28 27 23 17 24 23 27 24 22 29 30 30 35 42 45 47 46 48 50 55
7 5 4 4 4 4 4 4 4 4 4 5 5 4 4 13 22 19 18 25 27 25 20 17 17 15 14 20 20 15 15 13 18 28 32 36 38 43 41 42 49 51 55 70
9 7 5 3 3 3 3 4 4 4 4 4 4 4 12 18 22 19 23 24 22 23 15 12 10 11 13 17 13 12 12 21 27 29 37 42 40 40 42 51 59 55 57 65
26 8 6 4 3 3 3 3 4 3 4 4 4 8 9 20 23 20 22 19 19 15 11 9 9 11 11 11 11 13 14 21 30 38 44 34 34 39 48 52 61 57 66 78
33 16 7 5 4 3 3 3 3 4 3 4 7 8 10 14 15 17 15 14 12 10 9 8 9 10 10 11 12 14 14 17 28 36 30 29 32 38 50 57 63 64 67 81
34 27 12 7 4 4 4 3 3 3 5 7 8 10 9 9 10 11 11 9 8 9 9 11 12 12 12 12 15 16 16 17 25 30 27 27 39 51 56 58 65 64 73 74
38 26 22 12 6 4 4 3 4 4 7 9 11 12 11 10 9 10 9 9 10 12 13 13 13 14 16 17 18 18 17 19 26 28 23 32 43 42 57 62 74 66 65 64
41 28 22 18 13 8 6 4 6 8 9 11 14 13 12 11 10 11 12 12 13 13 14 15 16 17 18 18 19 18 18 20 26 23 27 38 54 56 57 60 58 61 60 57
46 32 22 19 17 15 13 12 10 10 12 16 14 14 14 15 15 16 15 16 16 16 16 16 16 16 18 19 20 19 20 22 21 25 32 47 55 60 57 58 62 57 57 60
45 39 28 23 19 17 15 13 13 14 14 17 16 15 15 15 15 15 15 14 14 15 15 15 16 16 18 20 20 20 21 21 24 28 41 59 63 58 57 62 64 63 61 56
42 39 35 28 23 19 16 14 14 14 14 14 15 15 15 15 14 15 14 14 14 14 15 15 15 16 18 21 22 22 22 28 30 39 57 74 77 73 67 72 65 63 61 59
44 38 36 32 29 24 21 16 14 13 12 12 12 12 13 13 13 13 15 15 15 15 15 16 17 20 23 24 23 24 30 30 30 38 81 80 74 77 70 72 69 63 61 55
44 43 37 33 32 29 24 22 20 17 16 14 14 15 16 16 16 17 18 17 16 16 17 18 20 25 26 26 26 24 33 36 53 51 74 78 81 82 78 71 64 61 59 60
28 35 43 42 36 34 30 26 23 21 20 16 17 17 18 18 18 18 17 17 18 20 21 23 28 29 29 28 26 26 62 86 85 79 87 86 84 82 77 69 61 59 62 63
20 21 26 37 44 45 43 36 29 28 24 20 18 18 18 19 19 19 22 23 24 28 29 31 33 33 27 26 28 69 98 98 84 87 86 90 84 72 71 66 67 68 68 64
26 22 20 21 27 39 45 41 47 46 41 34 29 27 28 30 31 34 34 36 36 38 37 36 35 28 31 39 57 95 94 87 82 90 87 73 68 70 70 70 71 70 66 61
42 32 24 21 20 23 28 36 46 53 49 45 34 28 36 44 42 43 44 44 44 41 38 33 32 43 65 63 83 94 84 81 78 75 73 68 62 60 66 71 71 68 66 60
90 69 63 50 28 21 30 32 33 37 37 28 22 24 27 31 39 44 46 45 43 37 32 32 44 61 82 90 92 88 76 70 67 69 64 64 69 74 77 77 74 67 57 47
100 100 92 58 34 29 39 38 35 31 32 22 18 25 30 39 51 55 61 61 53 34 30 43 57 66 87 100 99 98 83 72 74 73 73 78 82 84 82 76 67 55 42 19
100 98 97 92 88 87 100 98 83 60 34 32 36 32 35 47 61 86 94 93 94 71 39 46 53 69 100 100 98 85 77 79 82 86 82 88 93 88 77 64 52 32 11 9
100 100 98 99 100 100 100 98 90 80 76 61 57 55 48 59 94 99 98 100 100 91 83 82 72 78 94 89 80 80 83 84 93 93 93 95 90 77 63 45 21 10 10 11
100 100 100 100 100 100 100 84 73 75 67 58 66 68 68 86 92 100 100 100 97 90 90 86 85 90 84 78 84 92 99 98 95 95 95 88 78 61 32 12 10 10 12 14
100 100 100 100 100 100 98 80 73 74 78 78 82 100 100 100 100 100 100 100 99 94 84 86 99 94 95 98 100 100 100 98 96 92 86 75 46 19 12 12 13 14 15 18
100 100 100 100 100 100 100 100 100 100 100 100 99 100 100 100 100 100 100 100 99 94 100 100 100 100 100 100 100 99 94 89 86 78 54 24 13 12 11 14 17 19 19 20
100 100 100 100 100 100 100 100 100 100 100 100 100 100 100 100 100 100 100 100 100 100 100 100 100 100 100 99 93 90 86 78 58 30 18 14 12 12 14 18 20 20 21 22
100 100 100 100 100 100 100 100 100 100 100 100 100 100 100 100 100 100 100 100 100 100 100 100 100 98 96 94 87 76 56 34 22 16 14 13 15 18 20 19 21 22 23 26

GFSNW_500_rhum_033.txt.gz
RH
16 8 7 8 9 8 10 10 11 14 14 12 11 11 9 10 12 8 8 6 5 11 18 22 18 27 34 24 20 26 24 30 28 18 27 29 31 29 25 23 28 36 36 42
12 7 6 8 7 8 9 9 10 12 13 12 12 9 8 10 9 7 7 4 11 21 28 26 24 22 22 23 25 22 24 23 14 19 23 25 25 24 23 21 22 23 32 56
11 6 6 8 7 7 8 8 8 11 13 12 11 8 9 8 7 6 5 8 14 27 30 28 31 24 23 21 16 18 16 12 13 17 20 23 22 23 23 22 23 23 35 36
10 7 6 7 7 7 7 8 8 10 11 9 9 8 8 7 6 6 5 18 17 27 30 26 21 16 14 12 11 14 14 12 14 15 16 20 21 20 21 22 21 22 30 47
11 7 7 7 6 6 6 6 10 10 10 10 9 8 6 5 5 5 9 23 18 27 24 17 15 14 11 11 11 10 11 14 14 16 18 18 19 19 21 20 20 22 26 50
12 7 8 8 7 6 6 6 11 10 9 8 7 6 5 5 5 8 18 24 19 24 28 28 16 11 9 10 10 11 12 13 16 17 18 19 18 20 21 22 22 23 23 35
18 8 7 7 7 6 6 7 13 11 9 7 6 5 5 4 5 9 12 22 23 29 31 21 18 12 9 9 11 12 13 16 18 18 18 18 18 19 21 22 23 25 34 42
18 28 12 7 6 6 6 7 9 8 7 6 5 4 4 4 5 10 10 26 30 22 20 19 14 11 10 12 13 14 16 17 17 17 17 18 18 19 21 23 24 32 38 43
40 18 36 43 17 6 6 7 7 7 6 6 8 5 4 4 4 11 13 17 18 18 19 15 11 12 12 14 15 15 16 16 16 16 16 17 18 19 21 23 26 30 40 57
55 34 20 27 23 8 6 6 6 5 4 5 5 4 4 5 4 8 11 14 14 15 16 13 12 12 13 14 15 16 16 16 16 16 16 17 19 19 24 27 32 33 53 61
69 50 38 22 14 10 6 5 5 5 4 4 4 5 5 4 4 10 12 14 16 15 15 14 14 14 15 16 15 16 16 16 16 17 18 19 21 21 26 30 29 43 60 69
91 69 48 38 27 14 10 7 6 5 5 5 4 5 5 4 4 8 13 15 20 18 17 16 17 17 17 16 16 16 16 18 18 20 22 23 24 26 28 31 51 61 60 53
98 88 67 47 34 28 22 14 10 8 6 5 5 5 6 5 5 8 12 16 17 17 19 19 18 17 17 17 17 19 19 20 18 20 24 27 31 29 29 35 59 68 60 55
92 95 95 63 48 36 31 24 20 14 12 9 9 7 8 8 9 11 17 19 18 19 21 20 19 19 16 16 17 17 22 25 28 27 32 33 32 33 43 64 77 70 65 71
78 80 82 91 66 53 39 29 25 21 18 16 16 14 15 15 15 16 19 23 23 21 20 18 16 14 15 16 17 20 32 31 30 34 38 36 37 45 65 81 86 82 85 87
72 72 69 69 73 59 50 41 31 31 26 21 18 22 20 18 19 19 20 20 18 15 14 14 15 18 20 16 17 28 39 38 41 42 39 34 35 52 73 88 93 94 100 95
53 70 68 63 58 53 49 45 45 40 37 30 23 21 22 21 21 21 24 25 24 22 20 18 22 25 21 20 23 48 47 39 41 39 35 35 40 58 62 71 93 100 97 88
40 54 69 71 64 53 50 51 49 43 36 32 23 23 28 32 30 30 33 33 32 26 28 24 35 38 38 29 44 40 47 56 63 70 75 68 56 57 78 97 96 92 91 89
33 33 38 52 54 54 54 49 43 42 38 31 25 27 30 31 36 42 45 46 45 38 34 39 36 29 30 40 41 50 51 63 67 73 82 91 99 100 100 100 98 96 94 92
28 28 28 29 36 45 39 34 27 22 21 19 20 23 25 37 41 44 49 42 39 31 28 32 26 20 30 50 58 63 77 83 84 88 91 96 100 100 100 98 94 93 90 92
61 36 25 23 34 36 35 28 24 21 18 17 17 18 24 33 39 41 41 30 29 26 29 44 27 22 52 66 61 61 90 94 89 99 100 100 99 98 98 99 96 93 99 100
98 94 70 70 90 99 96 78 70 65 62 49 44 69 82 81 84 74 71 92 93 80 71 74 64 64 66 69 74 81 96 90 91 94 96 100 99 100 100 100 99 100 100 96
100 100 100 100 100 99 82 76 70 72 70 68 76 88 98 100 100 100 100 99 92 93 88 80 78 82 85 84 88 94 88 84 83 90 99 100 100 100 100 100 100 100 95 83
100 100 100 100 100 93 71 62 64 69 72 75 79 87 95 100 100 100 100 100 98 98 89 81 89 86 80 78 75 78 87 94 100 100 100 100 100 100 100 100 98 91 74 39
100 100 100 100 100 98 86 79 74 72 71 73 75 79 87 96 100 100 100 100 100 100 98 95 90 85 82 79 84 91 97 100 100 100 100 100 100 100 100 97 76 44 26 21
99 100 100 100 100 100 100 100 97 88 80 79 85 89 98 98 100 100 100 100 100 99 98 99 99 93 94 98 99 100 100 100 100 100 100 100 99 94 78 43 26 21 18 15
32 53 60 72 98 100 100 100 99 100 100 100 99 99 100 100 100 100 100 100 100 100 100 100 100 100 100 100 100 100 100 100 100 100 99 95 68 36 25 20 17 15 16 16

GFSNW_500_rhum_036.txt.gz
RH
47 44 15 16 14 12 10 13 14 18 18 16 16 10 8 10 12 11 9 8 5 8 12 18 27 27 28 25 22 22 27 23 29 19 27 28 26 24 22 21 20 21 20 24
47 32 12 17 10 11 11 13 15 17 16 16 16 9 9 11 11 10 8 7 5 12 22 25 24 25 31 26 22 25 24 27 30 14 21 23 24 23 22 18 17 18 19 20
42 21 10 10 10 12 12 13 14 16 15 17 16 8 9 11 12 10 8 6 5 13 28 30 25 24 23 23 22 26 22 22 17 13 16 17 18 21 20 19 19 20 20 20
29 14 8 9 11 12 11 12 13 14 15 15 12 8 9 10 11 8 6 5 7 16 28 30 30 30 28 25 25 20 20 17 13 13 15 17 18 19 19 19 20 21 22 23
21 12 9 10 12 10 10 11 11 12 14 14 13 9 10 10 8 6 6 5 13 20 22 31 32 26 24 20 19 16 20 19 16 15 15 17 18 18 19 19 20 21 21 23
17 11 9 10 12 9 10 10 12 10 12 12 12 12 11 10 7 5 5 5 18 22 20 34 38 39 19 15 12 13 12 12 12 13 15 17 18 18 19 19 20 21 22 23
17 11 10 10 10 8 10 11 15 10 10 11 11 11 9 8 6 5 5 6 18 25 23 30 27 28 22 15 11 12 13 12 12 14 17 17 17 18 18 18 20 20 21 25
20 12 11 9 8 8 8 9 16 20 9 10 10 10 8 6 5 5 5 9 20 28 26 29 26 19 14 12 12 12 12 13 14 16 16 16 16 17 17 17 21 22 23 27
87 14 12 10 9 9 8 10 8 9 12 10 10 9 7 5 4 5 4 8 13 21 26 27 22 16 13 11 11 13 14 15 16 16 16 15 16 17 17 21 25 25 26 29
68 92 15 12 9 8 6 6 7 7 11 13 10 8 7 6 5 4 4 5 10 13 19 20 17 17 15 13 12 14 15 15 16 16 16 15 17 19 20 24 26 31 30 30
42 74 91 36 14 8 7 7 6 6 8 11 9 7 6 7 7 5 6 6 8 13 15 16 15 17 14 12 13 15 16 17 17 17 18 18 20 19 21 25 30 33 32 32
60 38 55 65 35 14 8 7 6 6 8 8 8 7 6 5 5 5 5 5 6 9 14 17 19 18 15 16 16 18 18 19 18 19 20 20 19 20 22 28 32 32 32 30
68 58 43 36 41 38 25 10 7 6 7 7 7 6 5 4 4 5 5 5 6 9 15 20 23 23 23 22 21 20 20 20 19 19 21 22 24 33 28 28 33 31 28 30
94 70 60 48 35 23 14 12 9 8 7 6 7 5 4 4 4 4 6 7 9 12 16 20 24 24 23 24 22 21 23 20 20 18 22 23 31 32 32 36 33 30 33 44
98 97 78 71 54 40 32 24 18 14 12 10 9 6 6 5 5 5 5 7 12 17 24 31 33 31 26 21 19 18 28 28 26 24 31 33 37 37 37 37 41 47 51 54
98 99 100 88 76 58 50 37 31 28 22 18 14 14 11 9 12 15 18 20 22 22 23 23 22 21 18 15 13 26 30 30 37 38 45 44 41 45 50 57 69 79 86 86
100 100 97 90 89 92 76 58 56 43 33 28 23 20 19 17 21 26 28 27 25 21 20 19 22 23 20 16 19 41 37 42 47 46 42 40 43 48 62 70 82 92 96 98
95 100 99 91 80 75 75 78 71 57 45 38 28 25 32 34 35 38 38 36 33 29 28 26 30 27 27 23 44 43 41 39 37 37 45 51 57 69 81 91 94 98 98 97
78 86 81 75 71 67 70 68 60 55 53 44 35 31 32 34 45 50 54 55 46 37 34 36 37 35 35 44 37 34 33 33 32 40 58 64 68 93 95 100 100 100 100 97
51 49 48 53 71 80 74 69 57 48 40 35 33 36 37 45 50 52 53 48 42 36 32 33 27 22 25 36 46 67 62 53 72 78 77 76 79 92 96 98 96 95 94 96
83 54 42 44 50 52 48 40 33 35 34 30 29 29 29 30 31 36 36 29 34 26 26 30 22 21 52 77 77 76 83 88 90 92 96 100 99 100 100 100 97 97 99 97
67 53 47 39 40 40 34 22 20 20 19 18 22 33 58 77 91 83 74 84 83 78 73 71 58 60 67 71 77 82 83 82 89 89 82 77 76 80 92 99 100 100 100 100
86 100 100 99 60 33 31 26 24 45 73 81 92 100 100 100 100 100 100 99 91 95 87 79 75 76 72 72 80 80 75 76 72 69 66 69 79 96 100 100 100 100 100 100
100 100 100 100 90 78 79 78 82 79 76 85 97 100 100 100 100 100 100 100 98 92 83 76 78 75 73 77 77 74 70 69 70 74 84 98 100 100 100 100 100 100 100 94
100 100 100 92 88 85 77 72 70 72 76 76 80 86 93 97 100 100 100 100 100 94 82 79 77 76 74 70 68 68 72 83 94 100 100 100 100 100 100 100 100 98 81 52
100 100 99 100 100 100 97 96 95 88 86 85 84 80 77 79 85 87 96 100 97 97 98 96 89 87 87 85 87 96 100 100 99 100 100 100 100 100 100 99 85 63 35 18
100 100 100 100 100 100 100 99 100 100 100 100 100 100 100 100 100 100 100 100 100 100 99 99 100 100 100 100 100 99 100 100 100 100 100 100 100 97 87 60 27 17 15 14